This is the latest recevied weather packets stored in our database for station/object KI7CSN-13. If no packets are shown the sender has not sent any weather packets the latest 1 day(s).
| Time | Temp. | Humidity | Pressure | Rain* | Wind** | Luminosity | Snow |
|---|---|---|---|---|---|---|---|
| 1778054259 | 10.56° C | 44% | 982.2 hPa | 0 mm | - | - | - |
| 1778053959 | 10.56° C | 43% | 982.2 hPa | 0 mm | - | - | - |
| 1778053659 | 10.56° C | 42% | 982.2 hPa | 0 mm | - | - | - |
| 1778053359 | 10.56° C | 42% | 982.3 hPa | 0 mm | - | - | - |
| 1778053059 | 10° C | 44% | 982.2 hPa | 0 mm | - | - | - |
| 1778052759 | 10.56° C | 42% | 982.2 hPa | 0 mm | - | - | - |
| 1778052459 | 10.56° C | 43% | 982.3 hPa | 0 mm | - | - | - |
| 1778052159 | 10.56° C | 43% | 982.2 hPa | 0 mm | - | - | - |
| 1778051859 | 10° C | 44% | 982.1 hPa | 0 mm | - | - | - |
| 1778051559 | 10° C | 45% | 982.1 hPa | 0 mm | - | - | - |
| 1778051259 | 10° C | 43% | 982 hPa | 0 mm | - | - | - |
| 1778050959 | 10° C | 42% | 982 hPa | 0 mm | - | - | - |
| 1778050659 | 11.11° C | 42% | 982.1 hPa | 0 mm | - | - | - |
| 1778050359 | 11.11° C | 40% | 982.1 hPa | 0 mm | - | - | - |
| 1778050059 | 11.11° C | 41% | 982 hPa | 0 mm | - | - | - |
| 1778049759 | 10.56° C | 42% | 982 hPa | 0 mm | - | - | - |
| 1778049459 | 11.11° C | 40% | 982 hPa | 0 mm | - | - | - |
| 1778049159 | 11.11° C | 40% | 981.9 hPa | 0 mm | - | - | - |
| 1778048859 | 11.11° C | 40% | 981.9 hPa | 0 mm | - | - | - |
| 1778048559 | 11.11° C | 41% | 981.9 hPa | 0 mm | - | - | - |
| 1778048259 | 11.11° C | 40% | 981.7 hPa | 0 mm | - | - | - |
| 1778047959 | 11.11° C | 40% | 981.7 hPa | 0 mm | - | - | - |
| 1778047659 | 11.11° C | 40% | 981.6 hPa | 0 mm | - | - | - |
| 1778047359 | 10.56° C | 40% | 981.6 hPa | 0 mm | - | - | - |
| 1778047059 | 11.11° C | 42% | 981.6 hPa | 0 mm | - | - | - |
* Rain latest hour (hover to see other rain measurements)
** Current wind speed in m/s (hover to see current wind gust speed)